Weather History for Muscatine, IA

Change the Weather History Date:

Saturday, February 9, 2013

  Actual Average Record
Temperature  
Mean Temperature 32 °F -  
Max Temperature 37 °F 32 °F 64 °F (2009)
Min Temperature 28 °F 13 °F -19 °F (1979)
Degree Days  
Heating Degree Days 32    
Moisture  
Dew Point 26 °F    
Average Humidity 78    
Maximum Humidity 86    
Minimum Humidity 70    
Precipitation  
Precipitation 0.00 in - - ()
Sea Level Pressure  
Sea Level Pressure 30.19 in    
Wind  
Wind Speed 10 mph (SSE)    
Max Wind Speed 18 mph    
Max Gust Speed 24 mph    
Visibility 10 miles    
Events      
Averages and records for this station are not official NWS values.
T = Trace of Precipitation, MM = Missing Value Source: NWS Daily Summary

Daily Weather History Graph

Daily Weather History Graph

Search for Another Location

Airport:

Trip Planner

Search our weather history database for the weather conditions in past years. The results will help you decide how hot, cold, wet, or windy it might be!

Date:

Astronomy

Feb. 09, 2013 Rise Set
Actual Time 7:06 AM CST 5:31 PM CST
Civil Twilight 6:38 AM CST 6:00 PM CST
Nautical Twilight 6:05 AM CST 6:32 PM CST
Astronomical Twilight 5:33 AM CST 7:04 PM CST
Moon 6:18 AM CST (2/9) 5:14 PM CST (2/9)
Length of Visible Light 11h 21m
Length of Day
10h 24m
Waning Crescent, 0% of the Moon is Illuminated
Feb 9
Waning Crescent
Feb 10
New
Feb 17
First Quarter
Feb 25
Full
Mar 4
Last Quarter

Hourly Weather History & Observations

Time (CST) Temp. Windchill Dew Point Humidity Pressure Visibility Wind Dir Wind Speed Gust Speed Precip Events Conditions
12:15 AM 30.2 °F 21.3 °F 23.0 °F 75% 30.35 in 10.0 mi SSE 10.4 mph - N/A   Overcast
12:35 AM 30.2 °F 21.9 °F 23.0 °F 75% 30.35 in 10.0 mi South 9.2 mph - N/A   Overcast
12:55 AM 30.2 °F 21.3 °F 23.0 °F 75% 30.34 in 10.0 mi SE 10.4 mph - N/A   Overcast
1:15 AM 30.2 °F 21.9 °F 23.0 °F 75% 30.34 in 10.0 mi SSE 9.2 mph - N/A   Overcast
1:35 AM 30.2 °F 23.4 °F 23.0 °F 75% 30.35 in 10.0 mi South 6.9 mph - N/A   Overcast
1:55 AM 30.2 °F 21.3 °F 23.0 °F 75% 30.33 in 10.0 mi SSE 10.4 mph - N/A   Overcast
2:15 AM 28.4 °F 19.1 °F 23.0 °F 80% 30.33 in 10.0 mi South 10.4 mph - N/A   Overcast
2:55 AM 28.4 °F 20.4 °F 23.0 °F 80% 30.33 in 10.0 mi SE 8.1 mph - N/A   Overcast
3:15 AM 28.4 °F 19.1 °F 23.0 °F 80% 30.33 in 10.0 mi SE 10.4 mph - N/A   Overcast
3:35 AM 28.4 °F 20.4 °F 23.0 °F 80% 30.32 in 10.0 mi SE 8.1 mph - N/A   Overcast
3:55 AM 28.4 °F 18.5 °F 23.0 °F 80% 30.32 in 10.0 mi SSE 11.5 mph 16.1 mph N/A   Overcast
4:15 AM 28.4 °F 19.1 °F 23.0 °F 80% 30.33 in 10.0 mi South 10.4 mph - N/A   Overcast
4:35 AM 28.4 °F 18.0 °F 23.0 °F 80% 30.32 in 10.0 mi South 12.7 mph 16.1 mph N/A   Overcast
4:55 AM 28.4 °F 19.1 °F 23.0 °F 80% 30.31 in 10.0 mi SE 10.4 mph - N/A   Overcast
5:15 AM 28.4 °F 20.4 °F 23.0 °F 80% 30.31 in 10.0 mi SSE 8.1 mph - N/A   Overcast
5:35 AM 28.4 °F 19.1 °F 23.0 °F 80% 30.31 in 10.0 mi SSE 10.4 mph 16.1 mph N/A   Overcast
5:55 AM 28.4 °F 18.5 °F 23.0 °F 80% 30.32 in 10.0 mi South 11.5 mph - N/A   Overcast
6:15 AM 28.4 °F 21.2 °F 23.0 °F 80% 30.32 in 10.0 mi SSE 6.9 mph - N/A   Overcast
6:35 AM 28.4 °F 18.5 °F 23.0 °F 80% 30.31 in 10.0 mi SSE 11.5 mph 16.1 mph N/A   Overcast
6:55 AM 28.4 °F 19.1 °F 24.8 °F 86% 30.31 in 10.0 mi SSE 10.4 mph - N/A   Overcast
7:15 AM 28.4 °F 20.4 °F 24.8 °F 86% 30.31 in 10.0 mi SSE 8.1 mph - N/A   Overcast
7:35 AM 28.4 °F 20.4 °F 24.8 °F 86% 30.31 in 10.0 mi SE 8.1 mph - N/A   Overcast
7:55 AM 30.2 °F 21.9 °F 24.8 °F 80% 30.31 in 10.0 mi SE 9.2 mph - N/A   Overcast
8:15 AM 30.2 °F 19.8 °F 24.8 °F 80% 30.31 in 10.0 mi SE 13.8 mph - N/A   Overcast
8:35 AM 30.2 °F 21.9 °F 24.8 °F 80% 30.30 in 10.0 mi SE 9.2 mph - N/A   Overcast
8:55 AM 30.2 °F 21.3 °F 24.8 °F 80% 30.30 in 10.0 mi SSE 10.4 mph - N/A   Overcast
9:15 AM 30.2 °F 20.8 °F 24.8 °F 80% 30.29 in 10.0 mi SSE 11.5 mph - N/A   Overcast
9:35 AM 30.2 °F 20.2 °F 24.8 °F 80% 30.28 in 10.0 mi SSE 12.7 mph 18.4 mph N/A   Overcast
9:55 AM 30.2 °F 19.8 °F 24.8 °F 80% 30.27 in 10.0 mi SSE 13.8 mph 17.3 mph N/A   Overcast
10:15 AM 30.2 °F 19.3 °F 24.8 °F 80% 30.26 in 10.0 mi SSE 15.0 mph - N/A   Overcast
10:35 AM 32.0 °F 21.2 °F 24.8 °F 75% 30.25 in 10.0 mi SSE 16.1 mph 21.9 mph N/A   Overcast
10:55 AM 32.0 °F 20.8 °F 24.8 °F 75% 30.25 in 10.0 mi SSE 17.3 mph 24.2 mph N/A   Overcast
11:15 AM 32.0 °F 21.2 °F 24.8 °F 75% 30.24 in 10.0 mi SSE 16.1 mph 24.2 mph N/A   Overcast
11:35 AM 33.8 °F 22.8 °F 24.8 °F 70% 30.23 in 10.0 mi SSE 18.4 mph 23.0 mph N/A   Overcast
11:55 AM 33.8 °F 23.2 °F 24.8 °F 70% 30.23 in 10.0 mi South 17.3 mph 21.9 mph N/A   Overcast
12:15 PM 33.8 °F 24.8 °F 24.8 °F 70% 30.22 in 10.0 mi SSE 12.7 mph 16.1 mph N/A   Overcast
12:35 PM 33.8 °F 24.8 °F 26.6 °F 75% 30.21 in 10.0 mi South 12.7 mph - N/A   Overcast
12:55 PM 33.8 °F 24.3 °F 26.6 °F 75% 30.21 in 10.0 mi South 13.8 mph 19.6 mph N/A   Overcast
1:15 PM 33.8 °F 25.3 °F 26.6 °F 75% 30.20 in 10.0 mi SSE 11.5 mph 18.4 mph N/A   Overcast
1:35 PM 33.8 °F 25.3 °F 26.6 °F 75% 30.18 in 10.0 mi SE 11.5 mph - N/A   Overcast
1:55 PM 33.8 °F 24.8 °F 26.6 °F 75% 30.16 in 10.0 mi SSE 12.7 mph - N/A   Overcast
2:15 PM 33.8 °F 24.3 °F 26.6 °F 75% 30.15 in 10.0 mi SSE 13.8 mph - N/A   Mostly Cloudy
2:55 PM 35.6 °F 27.1 °F 26.6 °F 70% 30.13 in 10.0 mi South 12.7 mph - N/A   Clear
3:15 PM 37.4 °F 29.3 °F 28.4 °F 70% 30.12 in 10.0 mi SSE 12.7 mph - N/A   Clear
3:35 PM 37.4 °F 30.3 °F 28.4 °F 70% 30.11 in 10.0 mi SSE 10.4 mph - N/A   Clear
3:55 PM 37.4 °F 30.8 °F 28.4 °F 70% 30.10 in 10.0 mi SE 9.2 mph - N/A   Scattered Clouds
4:15 PM 35.6 °F 29.9 °F 28.4 °F 75% 30.10 in 10.0 mi SE 6.9 mph - N/A   Scattered Clouds
4:35 PM 35.6 °F 28.0 °F 28.4 °F 75% 30.08 in 10.0 mi SE 10.4 mph - N/A   Clear
4:55 PM 35.6 °F 28.0 °F 28.4 °F 75% 30.07 in 10.0 mi SE 10.4 mph - N/A   Clear
5:15 PM 35.6 °F 29.2 °F 28.4 °F 75% 30.06 in 10.0 mi SE 8.1 mph - N/A   Clear
5:35 PM 35.6 °F 29.2 °F 28.4 °F 75% 30.06 in 10.0 mi SE 8.1 mph - N/A   Clear
5:55 PM 35.6 °F 28.6 °F 28.4 °F 75% 30.06 in 10.0 mi SE 9.2 mph - N/A   Clear
6:15 PM 35.6 °F 28.6 °F 28.4 °F 75% 30.06 in 10.0 mi SE 9.2 mph - N/A   Clear
6:35 PM 35.6 °F 28.6 °F 28.4 °F 75% 30.06 in 10.0 mi SE 9.2 mph - N/A   Clear
6:55 PM 35.6 °F 27.1 °F 28.4 °F 75% 30.05 in 10.0 mi SSE 12.7 mph - N/A   Clear
7:35 PM 33.8 °F 25.3 °F 28.4 °F 81% 30.05 in 10.0 mi SSE 11.5 mph 17.3 mph N/A   Clear
7:55 PM 33.8 °F 26.4 °F 28.4 °F 81% 30.05 in 10.0 mi SE 9.2 mph - N/A   Clear
8:15 PM 33.8 °F 26.4 °F 28.4 °F 81% 30.04 in 10.0 mi SE 9.2 mph - N/A   Clear
8:35 PM 33.8 °F 26.4 °F 28.4 °F 81% 30.03 in 10.0 mi SE 9.2 mph - N/A   Clear
8:55 PM 33.8 °F 27.7 °F 28.4 °F 81% 30.02 in 10.0 mi SE 6.9 mph - N/A   Scattered Clouds
9:15 PM 33.8 °F 27.7 °F 28.4 °F 81% 30.02 in 10.0 mi SE 6.9 mph - N/A   Scattered Clouds
9:35 PM 33.8 °F 27.0 °F 28.4 °F 81% 30.01 in 10.0 mi SE 8.1 mph - N/A   Clear
9:55 PM 33.8 °F 27.7 °F 28.4 °F 81% 30.00 in 10.0 mi SE 6.9 mph - N/A   Clear
10:15 PM 33.8 °F 27.0 °F 28.4 °F 81% 29.99 in 10.0 mi SE 8.1 mph - N/A   Clear
10:35 PM 33.8 °F 26.4 °F 28.4 °F 81% 29.98 in 10.0 mi SE 9.2 mph - N/A   Clear
10:55 PM 33.8 °F 27.0 °F 28.4 °F 81% 29.98 in 10.0 mi SE 8.1 mph - N/A   Clear
11:15 PM 35.6 °F 29.2 °F 28.4 °F 75% 29.99 in 10.0 mi SSE 8.1 mph - N/A   Scattered Clouds
11:35 PM 35.6 °F 30.7 °F 30.2 °F 81% 29.98 in 10.0 mi SE 5.8 mph - N/A   Mostly Cloudy
11:55 PM 35.6 °F 29.9 °F 30.2 °F 81% 29.98 in 10.0 mi SE 6.9 mph - N/A   Mostly Cloudy